Regional Weather Roundup
Issued by NWS

Home | Current Version | Previous Version | Graphics & Text | Print | Product List | Glossary On
Versions: 1 2 3 4 5 6 7 8 9 10 11 12 13 14 15 16 17 18 19 20 21 22 23 24 25 26 27 28
000
ASUS45 KPSR 190010
RWRAZ

ARIZONA HOURLY REGIONAL WEATHER ROUNDUP
NATIONAL WEATHER SERVICE PHOENIX AZ
500 PM MST SAT FEB 18 2017

NOTE: FAIR INDICATES FEW OR NO CLOUDS BELOW 12,000 FEET WITH NO
SIGNIFICANT WEATHER AND/OR OBSTRUCTIONS TO VISIBILITY.

AZZ001>003-036-190100-
NORTHWEST ARIZONA

CITY           SKY/WX    TMP DP  RH WIND       PRES   REMARKS
BULLHEAD CITY  DRIZZLE   59  54  82 CALM      29.53R
KINGMAN        LGT RAIN  50  45  83 VRB7      29.56R
6HR MIN TEMP:  50; 6HR MAX TEMP:  54; 6HR PCP:  0.02;

$$

AZZ004>008-015-016-018-190100-
NORTH CENTRAL ARIZONA

CITY           SKY/WX    TMP DP  RH WIND       PRES   REMARKS
GRAND CANYON   LGT RAIN  41  38  89 VRB3      29.68R
6HR MIN TEMP:  37; 6HR MAX TEMP:  43; 6HR PCP:  0.17;

WILLIAMS       CLOUDY    41  36  81 SE10G16   29.66R
PRESCOTT       CLOUDY    45  42  89 SE10G18   29.61S
6HR MIN TEMP:  43; 6HR MAX TEMP:  46; 6HR PCP:  0.04;

FLAGSTAFF      LGT RAIN  40  37  89 E3        29.67S
6HR MIN TEMP:  35; 6HR MAX TEMP:  40; 6HR PCP:  0.16;

PAYSON         PTSUNNY   48  37  66 S9G15     29.66S
PAGE           CLOUDY    50  39  66 N3        29.65S
6HR MIN TEMP:  47; 6HR MAX TEMP:  52; 6HR PCP:  0.02;

$$

AZZ009>014-017-190100-
NORTHEAST ARIZONA

CITY           SKY/WX    TMP DP  RH WIND       PRES   REMARKS
WINSLOW        CLOUDY    57  32  38 SE17      29.64R
6HR MIN TEMP:  54; 6HR MAX TEMP:  63;

SAINT JOHNS    PTSUNNY   55  28  35 S17G24    29.66S
6HR MIN TEMP:  53; 6HR MAX TEMP:  60;

WINDOW ROCK    PTSUNNY   52  26  36 S8        29.72R
6HR MIN TEMP:  43; 6HR MAX TEMP:  56;

SHOW LOW       PTSUNNY   46  27  46 S17G25    29.68S
$$

AZZ023-190100-
GREATER PHOENIX AREA

CITY           SKY/WX    TMP DP  RH WIND       PRES   REMARKS
PHOENIX        LGT RAIN  57  52  83 SE6       29.57R
6HR MIN TEMP:  57; 6HR MAX TEMP:  61; 6HR PCP:  0.20;

BUCKEYE        CLOUDY    57  57 100 S9G20     29.57R
GLENDALE       LGT RAIN  57  57 100 NE9       29.58R
LUKE AFB       CLOUDY    57  54  89 E8        29.56R
6HR MIN TEMP:  57; 6HR MAX TEMP:  62; 6HR PCP:  0.14;

DEER VALLEY    LGT RAIN  55  54  96 E8        29.57S FOG
6HR MIN TEMP:  54; 6HR MAX TEMP:  62; 6HR PCP:  0.14;

SCOTTSDALE     LGT RAIN  56  53  90 E6        29.60R
6HR MIN TEMP:  55; 6HR MAX TEMP:  64; 6HR PCP:  0.11;

MESA-FALCON    LGT RAIN N/A N/A N/A E7        29.58R
MESA-GATEWAY   LGT RAIN  55  52  88 SE8       29.62R
CHANDLER       CLOUDY    59  50  72 SE14      29.60
$$

AZZ027-028-190100-
SOUTHWEST MARICOPA COUNTY AND PINAL COUNTY

CITY           SKY/WX    TMP DP  RH WIND       PRES   REMARKS
CASA GRANDE    NOT AVBL
GILA BEND      LGT RAIN  55  50  83 S10       29.58R
6HR MIN TEMP:  55; 6HR MAX TEMP:  65; 6HR PCP: TRACE;

$$

AZZ503-504-507>509-190100-
SOUTHEAST ARIZONA

CITY           SKY/WX    TMP DP  RH WIND       PRES   REMARKS
TUCSON         CLOUDY    56  41  57 SE15G22   29.63R
6HR MIN TEMP:  53; 6HR MAX TEMP:  66; 6HR PCP:  0.04;

DAVIS-MONTHAN  CLOUDY    54  41  62 SE22G29   29.62S
6HR MIN TEMP:  51; 6HR MAX TEMP:  64; 6HR PCP:  0.05;

NOGALES        LGT RAIN  44  41  89 SE13G24   29.65F
6HR MIN TEMP:  43; 6HR MAX TEMP:  59; 6HR PCP:  0.18;

SIERRA VISTA   LGT RAIN  43  39  87 SE8       29.71R
6HR MIN TEMP:  44; 6HR MAX TEMP:  56; 6HR PCP: TRACE;

DOUGLAS        LGT RAIN  45  41  86 SW14      29.73R
6HR MIN TEMP:  44; 6HR MAX TEMP:  62; 6HR PCP:  0.02;

SAFFORD        CLOUDY    60  37  42 SW10      29.61S
6HR MIN TEMP:  58; 6HR MAX TEMP:  69; 6HR PCP: TRACE;

$$

AZZ020-021-025-026-031-190100-
SOUTHWEST ARIZONA

CITY           SKY/WX    TMP DP  RH WIND       PRES   REMARKS
YUMA           LGT RAIN  56  52  86 W6        29.57R
6HR MIN TEMP:  56; 6HR MAX TEMP:  57; 6HR PCP:  0.18;

$$

CAZ031-033-041-043-047-048-061-190100-
SOUTHERN CALIFORNIA

CITY           SKY/WX    TMP DP  RH WIND       PRES   REMARKS
DOWNTOWN L.A.  CLOUDY    58  52  80 W8        29.58R
6HR MIN TEMP:  56; 6HR MAX TEMP:  63; 6HR PCP:  0.02;

L.A. AIRPORT   PTSUNNY   56  52  86 W16       29.59S
6HR MIN TEMP:  54; 6HR MAX TEMP:  59; 6HR PCP:  0.02;

SAN DIEGO      PTSUNNY   59  53  80 SW8       29.62R
6HR MIN TEMP:  58; 6HR MAX TEMP:  61; 6HR PCP:  0.02;

BURBANK        LGT RAIN  57  49  74 W7        29.57R
6HR MIN TEMP:  52; 6HR MAX TEMP:  59; 6HR PCP: TRACE;

ONTARIO        PTSUNNY   55  52  89 SW3       29.57R
6HR MIN TEMP:  53; 6HR MAX TEMP:  59; 6HR PCP:  0.03;

RIVERSIDE      CLOUDY    57  50  77 W5        29.57R
6HR MIN TEMP:  54; 6HR MAX TEMP:  59;

PALM SPRINGS   CLOUDY    59  53  80 SE8       29.57R
6HR MIN TEMP:  56; 6HR MAX TEMP:  60; 6HR PCP: TRACE;

EL CENTRO NAS  LGT RAIN  58  52  80 N5        29.58R
6HR MIN TEMP:  57; 6HR MAX TEMP:  59; 6HR PCP:  0.06;

IMPERIAL       LGT RAIN  57  53  86 NW6       29.55R FOG
6HR MIN TEMP:  57; 6HR MAX TEMP:  58; 6HR PCP:  0.07;

BLYTHE         LGT RAIN  56  56 100 S8        29.54R
6HR MIN TEMP:  55; 6HR MAX TEMP:  58; 6HR PCP:  0.11;

NEEDLES        LGT RAIN  61  51  70 SW7       29.52R
6HR MIN TEMP:  59; 6HR MAX TEMP:  63; 6HR PCP:  0.01;

$$

NVZ020-UTZ003-190100-
SOUTHERN NEVADA-UTAH

CITY           SKY/WX    TMP DP  RH WIND       PRES   REMARKS
LAS VEGAS      RAIN      53  49  86 NE3       29.54R FOG
6HR MIN TEMP:  52; 6HR MAX TEMP:  55; 6HR PCP:  0.09;

SALT LAKE CITY CLOUDY    53  35  50 SE5       29.58R
6HR MIN TEMP:  51; 6HR MAX TEMP:  56;

$$

NMZ009-TXZ055-190100-
NEW MEXICO-WEST TEXAS

CITY           SKY/WX    TMP DP  RH WIND       PRES   REMARKS
ALBUQUERQUE    CLOUDY    54  31  41 S13       29.76R
6HR MIN TEMP:  50; 6HR MAX TEMP:  57;

EL PASO        MOSUNNY   66  27  23 SE10      29.66F
6HR MIN TEMP:  58; 6HR MAX TEMP:  67;

$$


........................KEY........................
SKY/WX - SKY CONDITION/WEATHER
TMP    - TEMPERATURE IN FAHRENHEIT
DP     - DEW POINT IN FAHRENHEIT
RH     - RELATIVE HUMIDITY IN PERCENT
WIND   - DIRECTION AND SPEED IN MILES PER HOUR (MPH)
VRB    - VARIABLE WIND DIRECTION
PRES   - MEAN SEA LEVEL PRESSURE IN INCHES OF MERCURY
         F - FALLING PRESSURE   R - RISING PRESSURE
         S - STEADY PRESSURE
VSB    - VISIBILITY IN MILES
HX     - HEAT INDEX IN FAHRENHEIT
WCI    - WIND CHILL INDEX IN FAHRENHEIT
TC     - TEMPERATURE IN CELSIUS WHICH IS ALSO KNOWN AS
         TEMPERATURE IN CENTIGRADE
AFB    - AIR FORCE BASE
         LUKE AFB IS LUKE AIR FORCE BASE
         DAVIS-MONTHAN IS DAVIS-MONTHAN AIR FORCE BASE
NAS    - NAVAL AIR STATION
         EL CENTRO NAS IS EL CENTRO NAVAL AIR STATION
N/A    - NOT AVAILABLE





USA.gov is the U.S. government's official web portal to all federal, state and local government web resources and services.